Year,Month,Day,Hour,Minute,Value (Times are PST for insolation in W/m^2)
2016,11,06,00,00,0.00
2016,11,06,00,01,0.00
2016,11,06,00,02,0.00
2016,11,06,00,03,0.00
2016,11,06,00,04,0.00
2016,11,06,00,05,0.00
2016,11,06,00,06,0.00
2016,11,06,00,07,0.00
2016,11,06,00,08,0.00
2016,11,06,00,09,0.00
2016,11,06,00,10,0.00
2016,11,06,00,11,0.00
2016,11,06,00,12,0.00
2016,11,06,00,13,0.00
2016,11,06,00,14,0.00
2016,11,06,00,15,0.00
2016,11,06,00,16,0.00
2016,11,06,00,17,0.00
2016,11,06,00,18,0.00
2016,11,06,00,19,0.00
2016,11,06,00,20,0.00
2016,11,06,00,21,0.00
2016,11,06,00,22,0.00
2016,11,06,00,23,0.00
2016,11,06,00,24,0.00
2016,11,06,00,25,0.00
2016,11,06,00,26,0.00
2016,11,06,00,27,0.00
2016,11,06,00,28,0.00
2016,11,06,00,29,0.00
2016,11,06,00,30,0.00
2016,11,06,00,31,0.00
2016,11,06,00,32,0.00
2016,11,06,00,33,0.00
2016,11,06,00,34,0.00
2016,11,06,00,35,0.00
2016,11,06,00,36,0.00
2016,11,06,00,37,0.00
2016,11,06,00,38,0.00
2016,11,06,00,39,0.00
2016,11,06,00,40,0.00
2016,11,06,00,41,0.00
2016,11,06,00,42,0.00
2016,11,06,00,43,0.00
2016,11,06,00,44,0.00
2016,11,06,00,45,0.00
2016,11,06,00,46,0.00
2016,11,06,00,47,0.00
2016,11,06,00,48,0.00
2016,11,06,00,49,0.00
2016,11,06,00,50,0.00
2016,11,06,00,51,0.00
2016,11,06,00,52,0.00
2016,11,06,00,53,0.00
2016,11,06,00,54,0.00
2016,11,06,00,55,0.00
2016,11,06,00,56,0.00
2016,11,06,00,57,0.00
2016,11,06,00,58,0.00
2016,11,06,00,59,0.00
2016,11,06,01,00,0.00
2016,11,06,01,01,0.00
2016,11,06,01,02,0.00
2016,11,06,01,03,0.00
2016,11,06,01,04,0.00
2016,11,06,01,05,0.00
2016,11,06,01,06,0.00
2016,11,06,01,07,0.00
2016,11,06,01,08,0.00
2016,11,06,01,09,0.00
2016,11,06,01,10,0.00
2016,11,06,01,11,0.00
2016,11,06,01,12,0.00
2016,11,06,01,13,0.00
2016,11,06,01,14,0.00
2016,11,06,01,15,0.00
2016,11,06,01,16,0.00
2016,11,06,01,17,0.00
2016,11,06,01,18,0.00
2016,11,06,01,19,0.00
2016,11,06,01,20,0.00
2016,11,06,01,21,0.00
2016,11,06,01,22,0.00
2016,11,06,01,23,0.00
2016,11,06,01,24,0.00
2016,11,06,01,25,0.00
2016,11,06,01,26,0.00
2016,11,06,01,27,0.00
2016,11,06,01,28,0.00
2016,11,06,01,29,0.00
2016,11,06,01,30,0.00
2016,11,06,01,31,0.00
2016,11,06,01,32,0.00
2016,11,06,01,33,0.00
2016,11,06,01,34,0.00
2016,11,06,01,35,0.00
2016,11,06,01,36,0.00
2016,11,06,01,37,0.00
2016,11,06,01,38,0.00
2016,11,06,01,39,0.00
2016,11,06,01,40,0.00
2016,11,06,01,41,0.00
2016,11,06,01,42,0.00
2016,11,06,01,43,0.00
2016,11,06,01,44,0.00
2016,11,06,01,45,0.00
2016,11,06,01,46,0.00
2016,11,06,01,47,0.00
2016,11,06,01,48,0.00
2016,11,06,01,49,0.00
2016,11,06,01,50,0.00
2016,11,06,01,51,0.00
2016,11,06,01,52,0.00
2016,11,06,01,53,0.00
2016,11,06,01,54,0.00
2016,11,06,01,55,0.00
2016,11,06,01,56,0.00
2016,11,06,01,57,0.00
2016,11,06,01,58,0.00
2016,11,06,01,59,0.00
2016,11,06,02,02,0.00
2016,11,06,02,03,0.00
2016,11,06,02,04,0.00
2016,11,06,02,05,0.00
2016,11,06,02,06,0.00
2016,11,06,02,07,0.00
2016,11,06,02,08,0.00
2016,11,06,02,09,0.00
2016,11,06,02,10,0.00
2016,11,06,02,11,0.00
2016,11,06,02,12,0.00
2016,11,06,02,13,0.00
2016,11,06,02,14,0.00
2016,11,06,02,15,0.00
2016,11,06,02,16,0.00
2016,11,06,02,17,0.00
2016,11,06,02,18,0.00
2016,11,06,02,19,0.00
2016,11,06,02,20,0.00
2016,11,06,02,21,0.00
2016,11,06,02,22,0.00
2016,11,06,02,23,0.00
2016,11,06,02,24,0.00
2016,11,06,02,25,0.00
2016,11,06,02,26,0.00
2016,11,06,02,27,0.00
2016,11,06,02,28,0.00
2016,11,06,02,29,0.00
2016,11,06,02,30,0.00
2016,11,06,02,31,0.00
2016,11,06,02,32,0.00
2016,11,06,02,33,0.00
2016,11,06,02,34,0.00
2016,11,06,02,35,0.00
2016,11,06,02,36,0.00
2016,11,06,02,37,0.00
2016,11,06,02,38,0.00
2016,11,06,02,39,0.00
2016,11,06,02,40,0.00
2016,11,06,02,41,0.00
2016,11,06,02,42,0.00
2016,11,06,02,43,0.00
2016,11,06,02,44,0.00
2016,11,06,02,45,0.00
2016,11,06,02,46,0.00
2016,11,06,02,47,0.00
2016,11,06,02,48,0.00
2016,11,06,02,49,0.00
2016,11,06,02,50,0.00
2016,11,06,02,51,0.00
2016,11,06,02,52,0.00
2016,11,06,02,53,0.00
2016,11,06,02,54,0.00
2016,11,06,02,55,0.00
2016,11,06,02,56,0.00
2016,11,06,02,57,0.00
2016,11,06,02,58,0.00
2016,11,06,02,59,0.00
2016,11,06,03,00,0.00
2016,11,06,03,01,0.00
2016,11,06,03,02,0.00
2016,11,06,03,03,0.00
2016,11,06,03,04,0.00
2016,11,06,03,05,0.00
2016,11,06,03,06,0.00
2016,11,06,03,07,0.00
2016,11,06,03,08,0.00
2016,11,06,03,09,0.00
2016,11,06,03,10,0.00
2016,11,06,03,11,0.00
2016,11,06,03,12,0.00
2016,11,06,03,13,0.00
2016,11,06,03,14,0.00
2016,11,06,03,15,0.00
2016,11,06,03,16,0.00
2016,11,06,03,17,0.00
2016,11,06,03,18,0.00
2016,11,06,03,19,0.00
2016,11,06,03,20,0.00
2016,11,06,03,21,0.00
2016,11,06,03,22,0.00
2016,11,06,03,23,0.00
2016,11,06,03,24,0.00
2016,11,06,03,25,0.00
2016,11,06,03,26,0.00
2016,11,06,03,27,0.00
2016,11,06,03,28,0.00
2016,11,06,03,29,0.00
2016,11,06,03,30,0.00
2016,11,06,03,31,0.00
2016,11,06,03,32,0.00
2016,11,06,03,33,0.00
2016,11,06,03,34,0.00
2016,11,06,03,35,0.00
2016,11,06,03,36,0.00
2016,11,06,03,37,0.00
2016,11,06,03,38,0.00
2016,11,06,03,39,0.00
2016,11,06,03,40,0.00
2016,11,06,03,41,0.00
2016,11,06,03,42,0.00
2016,11,06,03,43,0.00
2016,11,06,03,44,0.00
2016,11,06,03,45,0.00
2016,11,06,03,46,0.00
2016,11,06,03,47,0.00
2016,11,06,03,48,0.00
2016,11,06,03,49,0.00
2016,11,06,03,50,0.00
2016,11,06,03,51,0.00
2016,11,06,03,52,0.00
2016,11,06,03,53,0.00
2016,11,06,03,54,0.00
2016,11,06,03,55,0.00
2016,11,06,03,56,0.00
2016,11,06,03,57,0.00
2016,11,06,03,58,0.00
2016,11,06,03,59,0.00
2016,11,06,04,00,0.00
2016,11,06,04,01,0.00
2016,11,06,04,02,0.00
2016,11,06,04,03,0.00
2016,11,06,04,04,0.00
2016,11,06,04,05,0.00
2016,11,06,04,06,0.00
2016,11,06,04,07,0.00
2016,11,06,04,08,0.00
2016,11,06,04,09,0.00
2016,11,06,04,10,0.00
2016,11,06,04,11,0.00
2016,11,06,04,12,0.00
2016,11,06,04,13,0.00
2016,11,06,04,14,0.00
2016,11,06,04,15,0.00
2016,11,06,04,16,0.00
2016,11,06,04,17,0.00
2016,11,06,04,18,0.00
2016,11,06,04,19,0.00
2016,11,06,04,20,0.00
2016,11,06,04,21,0.00
2016,11,06,04,22,0.00
2016,11,06,04,23,0.00
2016,11,06,04,24,0.00
2016,11,06,04,25,0.00
2016,11,06,04,26,0.00
2016,11,06,04,27,0.00
2016,11,06,04,28,0.00
2016,11,06,04,29,0.00
2016,11,06,04,30,0.00
2016,11,06,04,31,0.00
2016,11,06,04,32,0.00
2016,11,06,04,33,0.00
2016,11,06,04,34,0.00
2016,11,06,04,35,0.00
2016,11,06,04,36,0.00
2016,11,06,04,37,0.00
2016,11,06,04,38,0.00
2016,11,06,04,39,0.00
2016,11,06,04,40,0.00
2016,11,06,04,41,0.00
2016,11,06,04,42,0.00
2016,11,06,04,43,0.00
2016,11,06,04,44,0.00
2016,11,06,04,45,0.00
2016,11,06,04,46,0.00
2016,11,06,04,47,0.00
2016,11,06,04,48,0.00
2016,11,06,04,49,0.00
2016,11,06,04,50,0.00
2016,11,06,04,51,0.00
2016,11,06,04,52,0.00
2016,11,06,04,53,0.00
2016,11,06,04,54,0.00
2016,11,06,04,55,0.00
2016,11,06,04,56,0.00
2016,11,06,04,57,0.00
2016,11,06,04,58,0.00
2016,11,06,04,59,0.00
2016,11,06,05,00,0.00
2016,11,06,05,01,0.00
2016,11,06,05,02,0.00
2016,11,06,05,03,0.00
2016,11,06,05,04,0.00
2016,11,06,05,05,0.00
2016,11,06,05,06,0.00
2016,11,06,05,07,0.00
2016,11,06,05,08,0.00
2016,11,06,05,09,0.00
2016,11,06,05,10,0.00
2016,11,06,05,11,0.00
2016,11,06,05,12,0.00
2016,11,06,05,13,0.00
2016,11,06,05,14,0.00
2016,11,06,05,15,0.00
2016,11,06,05,16,0.00
2016,11,06,05,17,0.00
2016,11,06,05,18,0.00
2016,11,06,05,19,0.00
2016,11,06,05,20,0.00
2016,11,06,05,21,0.00
2016,11,06,05,22,0.00
2016,11,06,05,23,0.00
2016,11,06,05,24,0.00
2016,11,06,05,25,0.00
2016,11,06,05,26,0.00
2016,11,06,05,27,0.00
2016,11,06,05,28,0.00
2016,11,06,05,29,0.00
2016,11,06,05,30,0.00
2016,11,06,05,31,0.00
2016,11,06,05,32,0.00
2016,11,06,05,33,0.00
2016,11,06,05,34,0.00
2016,11,06,05,35,0.00
2016,11,06,05,36,0.00
2016,11,06,05,37,0.00
2016,11,06,05,38,0.00
2016,11,06,05,39,0.00
2016,11,06,05,40,0.00
2016,11,06,05,41,0.00
2016,11,06,05,42,0.00
2016,11,06,05,43,0.00
2016,11,06,05,44,0.00
2016,11,06,05,45,0.00
2016,11,06,05,46,0.00
2016,11,06,05,47,0.00
2016,11,06,05,48,0.00
2016,11,06,05,49,0.00
2016,11,06,05,50,0.00
2016,11,06,05,51,0.00
2016,11,06,05,52,0.00
2016,11,06,05,53,0.00
2016,11,06,05,54,0.00
2016,11,06,05,55,0.00
2016,11,06,05,56,0.00
2016,11,06,05,57,0.00
2016,11,06,05,58,0.00
2016,11,06,05,59,0.00
2016,11,06,06,00,0.00
2016,11,06,06,01,0.00
2016,11,06,06,02,0.00
2016,11,06,06,03,0.00
2016,11,06,06,04,0.00
2016,11,06,06,05,0.00
2016,11,06,06,06,0.00
2016,11,06,06,07,0.00
2016,11,06,06,08,0.00
2016,11,06,06,09,0.00
2016,11,06,06,10,0.00
2016,11,06,06,11,0.00
2016,11,06,06,12,0.00
2016,11,06,06,13,0.00
2016,11,06,06,14,0.00
2016,11,06,06,15,0.00
2016,11,06,06,16,0.00
2016,11,06,06,17,0.00
2016,11,06,06,18,0.00
2016,11,06,06,19,0.00
2016,11,06,06,20,0.00
2016,11,06,06,21,0.00
2016,11,06,06,22,0.00
2016,11,06,06,23,0.00
2016,11,06,06,24,0.00
2016,11,06,06,25,0.00
2016,11,06,06,26,0.00
2016,11,06,06,27,0.00
2016,11,06,06,28,0.00
2016,11,06,06,29,0.00
2016,11,06,06,30,0.00
2016,11,06,06,31,0.00
2016,11,06,06,32,0.00
2016,11,06,06,33,0.00
2016,11,06,06,34,0.00
2016,11,06,06,35,0.00
2016,11,06,06,36,0.00
2016,11,06,06,37,0.00
2016,11,06,06,38,0.00
2016,11,06,06,39,0.00
2016,11,06,06,40,0.00
2016,11,06,06,41,0.00
2016,11,06,06,42,0.00
2016,11,06,06,43,0.00
2016,11,06,06,44,0.00
2016,11,06,06,45,0.00
2016,11,06,06,46,0.00
2016,11,06,06,47,0.00
2016,11,06,06,48,0.00
2016,11,06,06,49,0.00
2016,11,06,06,50,0.00
2016,11,06,06,51,0.00
2016,11,06,06,52,0.00
2016,11,06,06,53,0.00
2016,11,06,06,54,0.00
2016,11,06,06,55,0.00
2016,11,06,06,56,0.00
2016,11,06,06,57,0.00
2016,11,06,06,58,0.00
2016,11,06,06,59,0.00
2016,11,06,07,00,0.00
2016,11,06,07,01,0.00
2016,11,06,07,02,0.00
2016,11,06,07,03,0.00
2016,11,06,07,04,0.00
2016,11,06,07,05,0.00
2016,11,06,07,06,0.00
2016,11,06,07,07,0.00
2016,11,06,07,08,0.00
2016,11,06,07,09,0.00
2016,11,06,07,10,0.00
2016,11,06,07,11,0.00
2016,11,06,07,12,0.00
2016,11,06,07,13,0.00
2016,11,06,07,14,0.00
2016,11,06,07,15,0.00
2016,11,06,07,16,0.00
2016,11,06,07,17,0.20
2016,11,06,07,18,5.00
2016,11,06,07,19,5.70
2016,11,06,07,20,7.00
2016,11,06,07,21,8.30
2016,11,06,07,22,9.00
2016,11,06,07,23,10.80
2016,11,06,07,24,11.00
2016,11,06,07,25,11.00
2016,11,06,07,26,11.00
2016,11,06,07,27,11.00
2016,11,06,07,28,11.00
2016,11,06,07,29,11.90
2016,11,06,07,30,12.80
2016,11,06,07,31,16.00
2016,11,06,07,32,17.50
2016,11,06,07,33,19.00
2016,11,06,07,34,22.20
2016,11,06,07,35,23.00
2016,11,06,07,36,23.00
2016,11,06,07,37,23.00
2016,11,06,07,38,23.00
2016,11,06,07,39,23.00
2016,11,06,07,40,23.00
2016,11,06,07,41,23.20
2016,11,06,07,42,25.20
2016,11,06,07,43,28.40
2016,11,06,07,44,33.60
2016,11,06,07,45,37.70
2016,11,06,07,46,37.30
2016,11,06,07,47,36.80
2016,11,06,07,48,35.60
2016,11,06,07,49,37.00
2016,11,06,07,50,44.70
2016,11,06,07,51,57.30
2016,11,06,07,52,60.00
2016,11,06,07,53,61.10
2016,11,06,07,54,68.50
2016,11,06,07,55,71.10
2016,11,06,07,56,64.00
2016,11,06,07,57,61.50
2016,11,06,07,58,65.10
2016,11,06,07,59,74.10
2016,11,06,08,00,91.80
2016,11,06,08,01,124.90
2016,11,06,08,02,129.40
2016,11,06,08,03,109.90
2016,11,06,08,04,100.90
2016,11,06,08,05,109.40
2016,11,06,08,06,127.00
2016,11,06,08,07,127.00
2016,11,06,08,08,114.00
2016,11,06,08,09,134.20
2016,11,06,08,10,141.00
2016,11,06,08,11,141.00
2016,11,06,08,12,138.60
2016,11,06,08,13,134.00
2016,11,06,08,14,137.20
2016,11,06,08,15,116.50
2016,11,06,08,16,96.90
2016,11,06,08,17,92.10
2016,11,06,08,18,98.10
2016,11,06,08,19,101.60
2016,11,06,08,20,107.00
2016,11,06,08,21,103.00
2016,11,06,08,22,104.30
2016,11,06,08,23,109.70
2016,11,06,08,24,116.00
2016,11,06,08,25,118.80
2016,11,06,08,26,121.00
2016,11,06,08,27,132.30
2016,11,06,08,28,123.70
2016,11,06,08,29,130.50
2016,11,06,08,30,132.00
2016,11,06,08,31,132.00
2016,11,06,08,32,162.80
2016,11,06,08,33,176.00
2016,11,06,08,34,176.00
2016,11,06,08,35,185.80
2016,11,06,08,36,207.00
2016,11,06,08,37,207.00
2016,11,06,08,38,107.50
2016,11,06,08,39,81.30
2016,11,06,08,40,89.10
2016,11,06,08,41,98.20
2016,11,06,08,42,104.00
2016,11,06,08,43,97.20
2016,11,06,08,44,89.30
2016,11,06,08,45,90.60
2016,11,06,08,46,114.00
2016,11,06,08,47,134.00
2016,11,06,08,48,134.00
2016,11,06,08,49,143.00
2016,11,06,08,50,149.00
2016,11,06,08,51,162.30
2016,11,06,08,52,162.80
2016,11,06,08,53,162.00
2016,11,06,08,54,153.00
2016,11,06,08,55,144.00
2016,11,06,08,56,159.20
2016,11,06,08,57,163.30
2016,11,06,08,58,171.40
2016,11,06,08,59,186.60
2016,11,06,09,00,192.50
2016,11,06,09,01,168.80
2016,11,06,09,02,148.80
2016,11,06,09,03,150.80
2016,11,06,09,04,152.80
2016,11,06,09,05,155.20
2016,11,06,09,06,151.00
2016,11,06,09,07,147.50
2016,11,06,09,08,138.40
2016,11,06,09,09,150.10
2016,11,06,09,10,152.10
2016,11,06,09,11,179.00
2016,11,06,09,12,236.00
2016,11,06,09,13,177.90
2016,11,06,09,14,153.00
2016,11,06,09,15,148.90
2016,11,06,09,16,127.00
2016,11,06,09,17,127.00
2016,11,06,09,18,149.80
2016,11,06,09,19,165.00
2016,11,06,09,20,165.00
2016,11,06,09,21,192.60
2016,11,06,09,22,110.40
2016,11,06,09,23,112.20
2016,11,06,09,24,131.60
2016,11,06,09,25,128.60
2016,11,06,09,26,107.00
2016,11,06,09,27,106.30
2016,11,06,09,28,108.60
2016,11,06,09,29,99.50
2016,11,06,09,30,91.80
2016,11,06,09,31,92.40
2016,11,06,09,32,102.70
2016,11,06,09,33,91.00
2016,11,06,09,34,102.80
2016,11,06,09,35,162.50
2016,11,06,09,36,202.00
2016,11,06,09,37,127.00
2016,11,06,09,38,102.00
2016,11,06,09,39,102.00
2016,11,06,09,40,102.00
2016,11,06,09,41,100.00
2016,11,06,09,42,101.90
2016,11,06,09,43,115.20
2016,11,06,09,44,122.30
2016,11,06,09,45,142.20
2016,11,06,09,46,129.70
2016,11,06,09,47,120.00
2016,11,06,09,48,102.50
2016,11,06,09,49,95.00
2016,11,06,09,50,98.10
2016,11,06,09,51,75.20
2016,11,06,09,52,70.00
2016,11,06,09,53,72.30
2016,11,06,09,54,76.10
2016,11,06,09,55,80.40
2016,11,06,09,56,82.80
2016,11,06,09,57,93.00
2016,11,06,09,58,101.40
2016,11,06,09,59,119.60
2016,11,06,10,00,125.00
2016,11,06,10,01,125.00
2016,11,06,10,02,129.70
2016,11,06,10,03,155.00
2016,11,06,10,04,155.00
2016,11,06,10,05,146.60
2016,11,06,10,06,129.00
2016,11,06,10,07,110.10
2016,11,06,10,08,97.80
2016,11,06,10,09,99.20
2016,11,06,10,10,104.00
2016,11,06,10,11,112.80
2016,11,06,10,12,124.80
2016,11,06,10,13,130.50
2016,11,06,10,14,147.40
2016,11,06,10,15,156.50
2016,11,06,10,16,180.60
2016,11,06,10,17,216.50
2016,11,06,10,18,247.30
2016,11,06,10,19,269.70
2016,11,06,10,20,248.00
2016,11,06,10,21,358.20
2016,11,06,10,22,547.00
2016,11,06,10,23,547.00
2016,11,06,10,24,547.00
2016,11,06,10,25,277.50
2016,11,06,10,26,237.70
2016,11,06,10,27,223.00
2016,11,06,10,28,245.60
2016,11,06,10,29,250.00
2016,11,06,10,30,220.00
2016,11,06,10,31,210.60
2016,11,06,10,32,190.00
2016,11,06,10,33,190.00
2016,11,06,10,34,194.20
2016,11,06,10,35,194.00
2016,11,06,10,36,190.40
2016,11,06,10,37,185.80
2016,11,06,10,38,184.40
2016,11,06,10,39,183.90
2016,11,06,10,40,185.00
2016,11,06,10,41,185.00
2016,11,06,10,42,187.60
2016,11,06,10,43,186.00
2016,11,06,10,44,186.00
2016,11,06,10,45,186.00
2016,11,06,10,46,183.10
2016,11,06,10,47,181.00
2016,11,06,10,48,178.10
2016,11,06,10,49,173.50
2016,11,06,10,50,172.00
2016,11,06,10,51,172.90
2016,11,06,10,52,176.50
2016,11,06,10,53,178.80
2016,11,06,10,54,179.70
2016,11,06,10,55,186.40
2016,11,06,10,56,188.70
2016,11,06,10,57,190.00
2016,11,06,10,58,191.40
2016,11,06,10,59,192.80
2016,11,06,11,00,193.90
2016,11,06,11,01,202.40
2016,11,06,11,02,203.30
2016,11,06,11,03,198.50
2016,11,06,11,04,195.00
2016,11,06,11,05,195.00
2016,11,06,11,06,199.60
2016,11,06,11,07,227.00
2016,11,06,11,08,226.20
2016,11,06,11,09,222.80
2016,11,06,11,10,214.20
2016,11,06,11,11,211.00
2016,11,06,11,12,251.80
2016,11,06,11,13,249.40
2016,11,06,11,14,220.00
2016,11,06,11,15,196.30
2016,11,06,11,16,179.00
2016,11,06,11,17,179.00
2016,11,06,11,18,214.10
2016,11,06,11,19,413.00
2016,11,06,11,20,413.00
2016,11,06,11,21,376.50
2016,11,06,11,22,305.00
2016,11,06,11,23,250.30
2016,11,06,11,24,223.00
2016,11,06,11,25,223.00
2016,11,06,11,26,284.60
2016,11,06,11,27,360.00
2016,11,06,11,28,360.00
2016,11,06,11,29,349.30
2016,11,06,11,30,248.00
2016,11,06,11,31,214.80
2016,11,06,11,32,153.00
2016,11,06,11,33,153.00
2016,11,06,11,34,220.20
2016,11,06,11,35,241.50
2016,11,06,11,36,273.00
2016,11,06,11,37,348.00
2016,11,06,11,38,318.00
2016,11,06,11,39,288.00
2016,11,06,11,40,414.50
2016,11,06,11,41,454.00
2016,11,06,11,42,471.50
2016,11,06,11,43,550.00
2016,11,06,11,44,604.40
2016,11,06,11,45,617.00
2016,11,06,11,46,617.00
2016,11,06,11,47,617.00
2016,11,06,11,48,617.00
2016,11,06,11,49,617.00
2016,11,06,11,50,459.10
2016,11,06,11,51,330.00
2016,11,06,11,52,330.00
2016,11,06,11,53,328.90
2016,11,06,11,54,318.20
2016,11,06,11,55,311.20
2016,11,06,11,56,295.10
2016,11,06,11,57,306.00
2016,11,06,11,58,321.30
2016,11,06,11,59,332.00
2016,11,06,12,00,332.00
2016,11,06,12,01,344.60
2016,11,06,12,02,355.40
2016,11,06,12,03,300.20
2016,11,06,12,04,276.10
2016,11,06,12,05,238.20
2016,11,06,12,06,234.00
2016,11,06,12,07,241.20
2016,11,06,12,08,250.00
2016,11,06,12,09,250.00
2016,11,06,12,10,252.40
2016,11,06,12,11,246.00
2016,11,06,12,12,246.00
2016,11,06,12,13,275.80
2016,11,06,12,14,309.00
2016,11,06,12,15,314.60
2016,11,06,12,16,269.20
2016,11,06,12,17,244.00
2016,11,06,12,18,222.90
2016,11,06,12,19,206.50
2016,11,06,12,20,240.10
2016,11,06,12,21,258.00
2016,11,06,12,22,271.40
2016,11,06,12,23,274.80
2016,11,06,12,24,318.00
2016,11,06,12,25,318.00
2016,11,06,12,26,206.20
2016,11,06,12,27,146.00
2016,11,06,12,28,156.00
2016,11,06,12,29,261.30
2016,11,06,12,30,321.60
2016,11,06,12,31,304.30
2016,11,06,12,32,280.80
2016,11,06,12,33,285.00
2016,11,06,12,34,281.00
2016,11,06,12,35,257.80
2016,11,06,12,36,192.80
2016,11,06,12,37,188.40
2016,11,06,12,38,179.00
2016,11,06,12,39,179.00
2016,11,06,12,40,177.80
2016,11,06,12,41,171.00
2016,11,06,12,42,177.30
2016,11,06,12,43,185.00
2016,11,06,12,44,185.00
2016,11,06,12,45,148.40
2016,11,06,12,46,155.60
2016,11,06,12,47,194.10
2016,11,06,12,48,146.20
2016,11,06,12,49,159.60
2016,11,06,12,50,172.00
2016,11,06,12,51,189.90
2016,11,06,12,52,193.00
2016,11,06,12,53,214.00
2016,11,06,12,54,253.00
2016,11,06,12,55,253.00
2016,11,06,12,56,253.00
2016,11,06,12,57,253.00
2016,11,06,12,58,235.30
2016,11,06,12,59,160.00
2016,11,06,13,00,160.00
2016,11,06,13,01,160.00
2016,11,06,13,02,160.00
2016,11,06,13,03,403.90
2016,11,06,13,04,431.00
2016,11,06,13,05,431.00
2016,11,06,13,06,247.90
2016,11,06,13,07,91.20
2016,11,06,13,08,88.00
2016,11,06,13,09,88.00
2016,11,06,13,10,96.00
2016,11,06,13,11,120.00
2016,11,06,13,12,107.30
2016,11,06,13,13,111.70
2016,11,06,13,14,102.80
2016,11,06,13,15,102.00
2016,11,06,13,16,114.00
2016,11,06,13,17,134.60
2016,11,06,13,18,163.00
2016,11,06,13,19,126.20
2016,11,06,13,20,109.60
2016,11,06,13,21,120.60
2016,11,06,13,22,167.70
2016,11,06,13,23,151.20
2016,11,06,13,24,226.70
2016,11,06,13,25,260.00
2016,11,06,13,26,180.90
2016,11,06,13,27,167.00
2016,11,06,13,28,136.00
2016,11,06,13,29,70.70
2016,11,06,13,30,68.20
2016,11,06,13,31,69.00
2016,11,06,13,32,85.70
2016,11,06,13,33,125.60
2016,11,06,13,34,156.20
2016,11,06,13,35,112.50
2016,11,06,13,36,98.00
2016,11,06,13,37,104.80
2016,11,06,13,38,107.00
2016,11,06,13,39,113.00
2016,11,06,13,40,143.30
2016,11,06,13,41,155.00
2016,11,06,13,42,193.40
2016,11,06,13,43,214.00
2016,11,06,13,44,213.90
2016,11,06,13,45,213.00
2016,11,06,13,46,215.60
2016,11,06,13,47,220.00
2016,11,06,13,48,220.00
2016,11,06,13,49,220.00
2016,11,06,13,50,231.60
2016,11,06,13,51,274.50
2016,11,06,13,52,285.00
2016,11,06,13,53,334.20
2016,11,06,13,54,411.80
2016,11,06,13,55,431.00
2016,11,06,13,56,403.00
2016,11,06,13,57,148.80
2016,11,06,13,58,156.40
2016,11,06,13,59,178.00
2016,11,06,14,00,178.00
2016,11,06,14,01,145.80
2016,11,06,14,02,140.20
2016,11,06,14,03,127.60
2016,11,06,14,04,123.00
2016,11,06,14,05,123.00
2016,11,06,14,06,116.00
2016,11,06,14,07,115.80
2016,11,06,14,08,121.00
2016,11,06,14,09,118.60
2016,11,06,14,10,114.00
2016,11,06,14,11,114.00
2016,11,06,14,12,90.80
2016,11,06,14,13,72.80
2016,11,06,14,14,67.00
2016,11,06,14,15,65.60
2016,11,06,14,16,65.80
2016,11,06,14,17,69.00
2016,11,06,14,18,108.20
2016,11,06,14,19,118.00
2016,11,06,14,20,123.20
2016,11,06,14,21,177.90
2016,11,06,14,22,241.00
2016,11,06,14,23,241.00
2016,11,06,14,24,187.00
2016,11,06,14,25,166.90
2016,11,06,14,26,152.20
2016,11,06,14,27,143.50
2016,11,06,14,28,135.60
2016,11,06,14,29,110.50
2016,11,06,14,30,89.70
2016,11,06,14,31,90.00
2016,11,06,14,32,90.00
2016,11,06,14,33,140.70
2016,11,06,14,34,216.10
2016,11,06,14,35,150.80
2016,11,06,14,36,137.80
2016,11,06,14,37,189.40
2016,11,06,14,38,195.80
2016,11,06,14,39,189.40
2016,11,06,14,40,131.10
2016,11,06,14,41,168.00
2016,11,06,14,42,192.40
2016,11,06,14,43,144.00
2016,11,06,14,44,134.60
2016,11,06,14,45,111.00
2016,11,06,14,46,107.60
2016,11,06,14,47,99.80
2016,11,06,14,48,95.30
2016,11,06,14,49,95.00
2016,11,06,14,50,95.60
2016,11,06,14,51,100.60
2016,11,06,14,52,105.00
2016,11,06,14,53,101.20
2016,11,06,14,54,100.00
2016,11,06,14,55,101.00
2016,11,06,14,56,101.20
2016,11,06,14,57,92.10
2016,11,06,14,58,94.60
2016,11,06,14,59,123.20
2016,11,06,15,00,143.40
2016,11,06,15,01,141.60
2016,11,06,15,02,134.00
2016,11,06,15,03,134.00
2016,11,06,15,04,132.60
2016,11,06,15,05,132.00
2016,11,06,15,06,132.00
2016,11,06,15,07,130.80
2016,11,06,15,08,127.00
2016,11,06,15,09,110.20
2016,11,06,15,10,101.50
2016,11,06,15,11,98.50
2016,11,06,15,12,96.10
2016,11,06,15,13,88.90
2016,11,06,15,14,81.40
2016,11,06,15,15,79.00
2016,11,06,15,16,83.70
2016,11,06,15,17,81.80
2016,11,06,15,18,76.60
2016,11,06,15,19,72.80
2016,11,06,15,20,69.60
2016,11,06,15,21,69.00
2016,11,06,15,22,67.60
2016,11,06,15,23,65.30
2016,11,06,15,24,64.70
2016,11,06,15,25,63.00
2016,11,06,15,26,63.00
2016,11,06,15,27,63.00
2016,11,06,15,28,59.50
2016,11,06,15,29,58.00
2016,11,06,15,30,53.80
2016,11,06,15,31,52.40
2016,11,06,15,32,50.10
2016,11,06,15,33,47.80
2016,11,06,15,34,46.20
2016,11,06,15,35,44.00
2016,11,06,15,36,42.00
2016,11,06,15,37,42.00
2016,11,06,15,38,42.00
2016,11,06,15,39,42.00
2016,11,06,15,40,42.00
2016,11,06,15,41,42.20
2016,11,06,15,42,44.00
2016,11,06,15,43,44.80
2016,11,06,15,44,46.00
2016,11,06,15,45,46.70
2016,11,06,15,46,47.00
2016,11,06,15,47,47.00
2016,11,06,15,48,47.00
2016,11,06,15,49,47.00
2016,11,06,15,50,44.20
2016,11,06,15,51,42.00
2016,11,06,15,52,42.00
2016,11,06,15,53,36.70
2016,11,06,15,54,34.20
2016,11,06,15,55,32.00
2016,11,06,15,56,29.80
2016,11,06,15,57,26.60
2016,11,06,15,58,26.00
2016,11,06,15,59,25.90
2016,11,06,16,00,24.50
2016,11,06,16,01,23.00
2016,11,06,16,02,23.00
2016,11,06,16,03,21.50
2016,11,06,16,04,21.00
2016,11,06,16,05,21.00
2016,11,06,16,06,21.00
2016,11,06,16,07,21.00
2016,11,06,16,08,21.00
2016,11,06,16,09,21.00
2016,11,06,16,10,21.00
2016,11,06,16,11,20.60
2016,11,06,16,12,19.00
2016,11,06,16,13,18.50
2016,11,06,16,14,18.00
2016,11,06,16,15,16.60
2016,11,06,16,16,15.90
2016,11,06,16,17,14.00
2016,11,06,16,18,14.00
2016,11,06,16,19,14.00
2016,11,06,16,20,12.80
2016,11,06,16,21,12.00
2016,11,06,16,22,11.90
2016,11,06,16,23,10.50
2016,11,06,16,24,9.00
2016,11,06,16,25,9.00
2016,11,06,16,26,7.70
2016,11,06,16,27,7.00
2016,11,06,16,28,7.00
2016,11,06,16,29,7.00
2016,11,06,16,30,6.20
2016,11,06,16,31,5.00
2016,11,06,16,32,5.00
2016,11,06,16,33,5.00
2016,11,06,16,34,0.00
2016,11,06,16,35,0.00
2016,11,06,16,36,0.00
2016,11,06,16,37,0.00
2016,11,06,16,38,0.00
2016,11,06,16,39,0.00
2016,11,06,16,40,0.00
2016,11,06,16,41,0.00
2016,11,06,16,42,0.00
2016,11,06,16,43,0.00
2016,11,06,16,44,0.00
2016,11,06,16,45,0.00
2016,11,06,16,46,0.00
2016,11,06,16,47,0.00
2016,11,06,16,48,0.00
2016,11,06,16,49,0.00
2016,11,06,16,50,0.00
2016,11,06,16,51,0.00
2016,11,06,16,52,0.00
2016,11,06,16,53,0.00
2016,11,06,16,54,0.00
2016,11,06,16,55,0.00
2016,11,06,16,56,0.00
2016,11,06,16,57,0.00
2016,11,06,16,58,0.00
2016,11,06,16,59,0.00
2016,11,06,17,00,0.00
2016,11,06,17,01,0.00
2016,11,06,17,02,0.00
2016,11,06,17,03,0.00
2016,11,06,17,04,0.00
2016,11,06,17,05,0.00
2016,11,06,17,06,0.00
2016,11,06,17,07,0.00
2016,11,06,17,08,0.00
2016,11,06,17,09,0.00
2016,11,06,17,10,0.00
2016,11,06,17,11,0.00
2016,11,06,17,12,0.00
2016,11,06,17,13,0.00
2016,11,06,17,14,0.00
2016,11,06,17,15,0.00
2016,11,06,17,16,0.00
2016,11,06,17,17,0.00
2016,11,06,17,18,0.00
2016,11,06,17,19,0.00
2016,11,06,17,20,0.00
2016,11,06,17,21,0.00
2016,11,06,17,22,0.00
2016,11,06,17,23,0.00
2016,11,06,17,24,0.00
2016,11,06,17,25,0.00
2016,11,06,17,26,0.00